TimeEST,TemperatureF,Dew PointF,Humidity,Sea Level PressureIn,VisibilityMPH,Wind Direction,Wind SpeedMPH,Gust SpeedMPH,PrecipitationIn,Events,Conditions,WindDirDegrees,DateUTC
12:55 AM,29.1,26.2,89,29.94,10.0,Calm,Calm,-,N/A,,Overcast,0,2013-02-16 05:55:00
1:55 AM,31.3,27.1,85,29.94,10.0,Calm,Calm,-,N/A,,Overcast,0,2013-02-16 06:55:00
2:55 AM,30.9,27.5,87,29.93,10.0,West,4.6,-,N/A,,Overcast,270,2013-02-16 07:55:00
3:55 AM,34.2,23.5,65,29.93,10.0,West,8.1,-,N/A,,Overcast,280,2013-02-16 08:55:00
4:44 AM,33.8,26.6,75,29.93,7.0,NW,8.1,-,N/A,Snow,Light Snow Showers,310,2013-02-16 09:44:00
4:55 AM,33.6,28.2,81,29.93,4.0,NW,13.8,-,0.00,Snow,Light Snow Showers,310,2013-02-16 09:55:00
5:08 AM,32.0,28.4,87,29.93,2.5,NW,10.4,-,N/A,Snow,Light Snow,310,2013-02-16 10:08:00
5:28 AM,32.0,30.2,93,29.93,3.0,WNW,9.2,-,N/A,Snow,Light Snow,290,2013-02-16 10:28:00
5:55 AM,32.2,30.2,92,29.94,1.5,WNW,9.2,-,0.00,Snow,Light Snow,300,2013-02-16 10:55:00
6:05 AM,32.0,30.2,93,29.93,4.0,NW,8.1,-,N/A,Snow,Light Snow,310,2013-02-16 11:05:00
6:28 AM,32.0,30.2,93,29.93,2.0,NW,10.4,-,N/A,Snow,Light Snow,310,2013-02-16 11:28:00
6:55 AM,32.0,30.4,94,29.93,1.5,WNW,8.1,-,0.00,Snow,Light Snow,300,2013-02-16 11:55:00
7:55 AM,32.0,30.6,94,29.94,1.5,WNW,8.1,-,0.02,Snow,Light Snow,300,2013-02-16 12:55:00
8:14 AM,32.0,30.2,93,29.94,1.0,WNW,6.9,-,N/A,Snow,Light Snow,300,2013-02-16 13:14:00
8:40 AM,32.0,30.2,93,29.94,1.5,WNW,4.6,-,N/A,Snow,Light Snow,300,2013-02-16 13:40:00
8:55 AM,32.4,30.9,94,29.94,1.5,WNW,4.6,-,0.01,Snow,Light Snow,290,2013-02-16 13:55:00
9:40 AM,33.8,30.2,87,29.94,2.0,NW,3.5,-,N/A,Snow,Light Snow,310,2013-02-16 14:40:00
9:55 AM,33.4,31.1,91,29.93,5.0,NW,4.6,-,0.00,Snow,Light Snow,320,2013-02-16 14:55:00
10:17 AM,33.8,30.2,87,29.92,10.0,NW,6.9,-,N/A,,Overcast,320,2013-02-16 15:17:00
10:55 AM,34.9,29.1,79,29.91,10.0,NW,5.8,-,0.00,,Overcast,320,2013-02-16 15:55:00
11:55 AM,36.0,27.7,72,29.90,10.0,WNW,8.1,-,N/A,,Overcast,300,2013-02-16 16:55:00
12:55 PM,37.2,27.5,68,29.88,10.0,NNW,6.9,-,N/A,,Overcast,330,2013-02-16 17:55:00
1:55 PM,38.5,25.3,59,29.86,10.0,Variable,3.5,-,N/A,,Overcast,0,2013-02-16 18:55:00
2:55 PM,37.4,21.2,52,29.85,10.0,NW,8.1,-,N/A,,Overcast,320,2013-02-16 19:55:00
3:55 PM,37.2,21.7,54,29.84,10.0,NNW,9.2,-,N/A,,Overcast,330,2013-02-16 20:55:00
4:55 PM,36.5,20.8,53,29.83,10.0,NNW,9.2,-,N/A,,Overcast,330,2013-02-16 21:55:00
5:55 PM,36.3,22.8,58,29.83,10.0,North,8.1,-,N/A,,Overcast,350,2013-02-16 22:55:00
6:55 PM,34.7,20.1,55,29.83,10.0,NNW,9.2,-,N/A,,Overcast,330,2013-02-16 23:55:00
7:55 PM,34.2,25.3,70,29.82,10.0,North,8.1,-,N/A,,Overcast,10,2013-02-17 00:55:00
8:55 PM,32.9,20.7,61,29.81,10.0,North,8.1,-,N/A,,Overcast,360,2013-02-17 01:55:00
9:55 PM,32.4,16.9,53,29.78,10.0,North,12.7,19.6,N/A,,Overcast,10,2013-02-17 02:55:00
10:55 PM,31.5,16.7,54,29.77,10.0,North,9.2,-,N/A,,Overcast,350,2013-02-17 03:55:00
11:55 PM,30.6,13.8,50,29.72,10.0,North,13.8,-,N/A,,Overcast,350,2013-02-17 04:55:00